Regional Weather Roundup
Issued by NWS Nashville, TN

Current Version | Previous Version | Text Only | Print | Product List | Glossary Off
Versions: 1 2 3 4 5 6 7 8 9 10 11 12 13 14 15 16 17 18 19 20 21 22 23 24 25 26 27

000
ASUS44 KOHX 140710
RWROHX
MIDDLE TENNESSEE HOURLY WEATHER ROUNDUP
NATIONAL WEATHER SERVICE NASHVILLE TN
200 AM CDT FRI MAY 14 2021

NOTE: "FAIR" INDICATES FEW OR NO CLOUDS BELOW 12,000 FEET WITH
NO SIGNIFICANT WEATHER AND/OR OBSTRUCTIONS TO VISIBILITY.

* THESE REPORTS ARE NOT UNDER NWS QUALITY CONTROL AND MAY NOT
  REPORT WEATHER SUCH AS PRECIPITATION AND FOG.


TNZ005>011-023>034-057-059-062>066-078-080-140800
...NORTHERN MIDDLE TENNESSEE...

CITY           SKY/WX    TMP DP  RH WIND       PRES   REMARKS
CLARKSVILLE    CLEAR     46  41  82 CALM      30.29F
CROSSVILLE     MOCLDY    45  38  76 CALM      30.27F
DICKSON          N/A     46  37  71 CALM      30.27F
LEBANON        PTCLDY    45  41  87 CALM      30.26S
LIVINGSTON     MOCLDY    52  34  50 NE6       30.26S
NASHVILLE      CLEAR     49  38  65 CALM      30.29F
PORTLAND       CLEAR     43  41  93 CALM      30.28S
ROCKWOOD       PTCLDY    46  36  66 NW3       30.25S
SMYRNA         CLEAR     45  41  86 CALM      30.29F
SPARTA         CLOUDY    43  43 100 CALM      30.26S
SPRINGFIELD    PTCLDY    43  41  93 CALM      30.28S
WEST NASHVILLE CLEAR     45  43  93 CALM      30.27S
$$
TNZ056-058-060-061-075>077-079-093>097-140800
...SOUTHERN MIDDLE TENNESSEE...

CITY           SKY/WX    TMP DP  RH WIND       PRES   REMARKS
COLUMBIA       CLEAR     43  43 100 CALM      30.26F
FAYETTEVILLE   CLEAR     48  39  71 N5        30.27F
LAWRENCEBURG   CLOUDY    45  41  87 CALM      30.26F
LEWISBURG      CLEAR     41  41 100 CALM      30.27F
MURFREESBORO     N/A     46  41  81 CALM      30.26S
PULASKI        PTCLDY    41  41 100 CALM      30.26F
SHELBYVILLE    CLEAR     41  41 100 CALM      30.26F
TULLAHOMA      MOCLDY    45  39  81 CALM      30.25F
WINCHESTER     PTCLDY    45  43  93 CALM      30.25F
$$


...KEY TO REMARKS...
VSB - VISIBILITY IN MILES
WCI - WIND CHILL INDEX
HX  - HEAT INDEX




USA.gov is the U.S. government's official web portal to all federal, state and local government web resources and services.